SILO ALERT LOG
| Silo ID | Alert Type | Alert Message | Silo Type | Points | Depth (mm) | Strength | Temperature (°C) | Humidity (%) | Height (mm) | Volume (㎥) | Weight (t) | Flag | Time |
|---|---|---|---|---|---|---|---|---|---|---|---|---|---|
| DJHNR11 | Temperature | 온도센서 측정값이 0도 미만 | 호퍼 | 92 | 4823 | 232 | -3.4 | 75.6 | 5556 | 65.916 | 41.672 | 11 | 2024-01-12 23:39:31.000 |
| DJSSD09 | Temperature | 온도센서 측정값이 0도 미만 | 평 | 127 | 2824 | 3298 | -45.4 | 0 | 4855 | 675.782 | 427.229 | 11 | 2024-01-12 23:39:31.000 |
| DJSAD16 | Humidity | 습도센서 측정값이 80% 초과 | 평 | 97 | 6122 | 3434 | 4.9 | 80.2 | 1457 | 145.165 | 91.773 | 11 | 2024-01-12 23:39:31.000 |
| DJSAD18 | Humidity | 습도센서 측정값이 80% 초과 | 평 | 118 | 1505 | 5883 | 5.2 | 80.8 | 6074 | 604.858 | 382.391 | 11 | 2024-01-12 23:39:30.000 |
| DJHNR13 | Temperature | 온도센서 측정값이 0도 미만 | 호퍼 | 12 | 3149 | 3069 | -2.4 | 68 | 7230 | 102.011 | 64.491 | 0 | 2024-01-12 23:39:30.000 |
| DJHNR03 | Temperature | 온도센서 상태 이상 | 호퍼 | 0 | 15500 | 0 | -999 | -999 | -119 | 0 | 0 | 31 | 2024-01-12 23:39:24.000 |
| DJSSD12 | Temperature | 온도센서 상태 이상 | 호퍼 | 0 | 11350 | 0 | -999 | -999 | -120 | 0 | 0 | 31 | 2024-01-12 23:39:24.000 |
| DJHNR12 | Temperature | 온도센서 측정값이 0도 미만 | 호퍼 | 0 | 10500 | 0 | -0.6 | 78.1 | -120 | 0 | 0 | 31 | 2024-01-12 23:39:23.000 |
| DJSAD03 | Humidity | 습도센서 측정값이 80% 초과 | 평 | 440 | 1749 | 6174 | 3.8 | 84.5 | 7030 | 291.035 | 183.992 | 0 | 2024-01-12 22:39:40.000 |
| DJDJD03 | Humidity | 습도센서 측정값이 80% 초과 | 평 | 79 | 4405 | 5193 | 3.5 | 81.4 | 3274 | 396.751 | 250.826 | 0 | 2024-01-12 22:39:39.000 |
| DJSAD02 | Humidity | 습도센서 측정값이 80% 초과 | 평 | 388 | 1136 | 4325 | 2.8 | 85.4 | 7643 | 316.409 | 200.034 | 11 | 2024-01-12 22:39:39.000 |
| DJSAD01 | Humidity | 습도센서 측정값이 80% 초과 | 평 | 444 | 1537 | 7492 | 2 | 85.6 | 7242 | 299.8 | 189.533 | 0 | 2024-01-12 22:39:39.000 |
| DJSSD01 | Humidity | 습도센서 측정값이 80% 초과 | 평 | 795 | 2566 | 4658 | 5.9 | 82.9 | 5513 | 767.343 | 485.114 | 0 | 2024-01-12 22:39:33.000 |
| DJSSD04 | Temperature | 온도센서 상태 이상 | 평 | 0 | 8200 | 0 | -999 | -999 | -120 | -16.702 | 0 | 31 | 2024-01-12 22:39:33.000 |
| DJDJD04 | Humidity | 습도센서 측정값이 80% 초과 | 평 | 280 | 4188 | 4434 | 4.7 | 81.1 | 3491 | 423.014 | 267.43 | 11 | 2024-01-12 22:39:32.000 |
| DJHNR01 | Humidity | 습도센서 측정값이 80% 초과 | 호퍼 | 471 | 4315 | 4898 | 6.2 | 99.9 | 11064 | 472.262 | 298.564 | 13 | 2024-01-12 22:39:32.000 |
| DJSSD05 | Temperature | 온도센서 측정값이 0도 미만 | 평 | 833 | 2545 | 4868 | -45.4 | 43.7 | 5534 | 770.325 | 487 | 0 | 2024-01-12 22:39:32.000 |
| DJSAD16 | Humidity | 습도센서 측정값이 80% 초과 | 평 | 88 | 6272 | 3427 | 5.3 | 80.1 | 1307 | 130.223 | 82.327 | 11 | 2024-01-12 22:39:32.000 |
| DJSAD17 | Humidity | 습도센서 측정값이 80% 초과 | 평 | 449 | 3113 | 4839 | 4.5 | 81.2 | 4466 | 444.785 | 281.193 | 0 | 2024-01-12 22:39:31.000 |
| DJHNR11 | Temperature | 온도센서 측정값이 0도 미만 | 호퍼 | 87 | 4876 | 232 | -3.1 | 75.4 | 5503 | 64.767 | 40.946 | 11 | 2024-01-12 22:39:31.000 |
[첫 페이지] [9977] [9978] [9979] [9980] 9981 [9982] [9983] [9984] [9985] [마지막 페이지]